Monterey, CA

4:33 AM PST on December 11, 2016 (GMT -0800)
Monterey Peninsula

Weather History for KMRY - April, 2013

Change the Weather History Date:

Friday, April 19, 2013

  Actual Average Record
Temperature  
Mean Temperature 54 °F 54 °F  
Max Temperature 64 °F 62 °F 86 °F (2009)
Min Temperature 43 °F 47 °F 42 °F (2006)
Degree Days  
Heating Degree Days 11    
Month to date heating degree days 201  
Since 1 July heating degree days 2851  
Cooling Degree Days 0    
Month to date cooling degree days 0  
Year to date cooling degree days 0  
Growing Degree Days 2 (Base 50)    
Moisture  
Dew Point 43 °F    
Average Humidity 68    
Maximum Humidity 83    
Minimum Humidity 52    
Precipitation  
Precipitation 0.00 in - 0.08 in (2001)
Month to date precipitation 0.30  
Year to date precipitation 3.09  
Since 1 July precipitation 11.33  
Sea Level Pressure  
Sea Level Pressure 30.23 in    
Wind  
Wind Speed 5 mph (West)    
Max Wind Speed 14 mph    
Max Gust Speed 16 mph    
Visibility 9 miles    
Events Fog    
T = Trace of Precipitation, MM = Missing Value Source: NWS Daily Summary

Daily Weather History Graph

Daily Weather History Graph

Search for Another Location

Airport or City:

Trip Planner

Search our weather history database for the weather conditions in past years. The results will help you decide how hot, cold, wet, or windy it might be!

Date:

Astronomy

Apr. 19, 2013 Rise Set
Actual Time 6:27 AM PDT 7:45 PM PDT
Civil Twilight 6:01 AM PDT 8:12 PM PDT
Nautical Twilight 5:28 AM PDT 8:44 PM PDT
Astronomical Twilight 4:55 AM PDT 9:18 PM PDT
Moon 1:44 PM PDT (4/19) 2:36 AM PDT (4/19)
Length of Visible Light 14h 11m
Length of Day
13h 17m
Waxing Gibbous, 62% of the Moon is Illuminated
Apr 19
Waxing Gibbous
Apr 25
Full
May 2
Last Quarter
May 9
New
May 17
First Quarter

Hourly Weather History & Observations

Time (PDT) Temp. Windchill Dew Point Humidity Pressure Visibility Wind Dir Wind Speed Gust Speed Precip Events Conditions
12:54 AM 46.9 °F - 41.0 °F 80% 30.27 in 10.0 mi Calm Calm - N/A   Clear
1:54 AM 48.0 °F - 39.0 °F 71% 30.27 in 10.0 mi Calm Calm - N/A   Clear
2:54 AM 45.0 °F 43.5 °F 37.9 °F 76% 30.26 in 10.0 mi East 3.5 mph - N/A   Clear
3:54 AM 45.0 °F - 36.0 °F 71% 30.26 in 10.0 mi Calm Calm - N/A   Clear
4:54 AM 46.9 °F - 39.9 °F 77% 30.26 in 10.0 mi Calm Calm - N/A   Clear
5:54 AM 44.1 °F 42.5 °F 37.0 °F 76% 30.27 in 10.0 mi ESE 3.5 mph - N/A   Clear
6:11 AM 42.8 °F - 37.4 °F 81% 30.23 in 10.0 mi Calm Calm - N/A   Scattered Clouds
6:13 AM 42.8 °F - 37.4 °F 81% 30.23 in 0.5 mi Calm Calm - N/A Fog Fog
6:48 AM 44.6 °F - 42.8 °F 93% 30.24 in 10.0 mi Calm Calm - N/A   Partly Cloudy
6:54 AM 44.1 °F 42.5 °F 39.9 °F 85% 30.28 in 10.0 mi East 3.5 mph - N/A   Partly Cloudy
7:54 AM 51.1 °F - 45.0 °F 80% 30.30 in 9.0 mi Calm Calm - N/A   Clear
8:54 AM 55.9 °F - 46.0 °F 69% 30.29 in 9.0 mi Calm Calm - N/A   Clear
9:54 AM 57.9 °F - 46.9 °F 67% 30.28 in 8.0 mi NW 3.5 mph - N/A   Clear
10:54 AM 57.9 °F - 43.0 °F 58% 30.29 in 10.0 mi WNW 3.5 mph - N/A   Clear
11:54 AM 57.9 °F - 46.9 °F 67% 30.29 in 9.0 mi NW 5.8 mph - N/A   Clear
12:54 PM 57.9 °F - 46.9 °F 67% 30.26 in 9.0 mi Variable 4.6 mph - N/A   Clear
1:54 PM 57.9 °F - 48.0 °F 70% 30.25 in 10.0 mi NW 12.7 mph - N/A   Clear
2:54 PM 59.0 °F - 48.0 °F 67% 30.23 in 10.0 mi NNW 8.1 mph - N/A   Clear
3:54 PM 57.9 °F - 48.0 °F 70% 30.21 in 10.0 mi NW 8.1 mph - N/A   Clear
4:54 PM 63.0 °F - 46.0 °F 54% 30.19 in 10.0 mi WNW 8.1 mph - N/A   Clear
5:54 PM 63.0 °F - 45.0 °F 52% 30.18 in 10.0 mi WSW 8.1 mph - N/A   Clear
6:54 PM 60.1 °F - 46.0 °F 60% 30.17 in 10.0 mi West 5.8 mph - N/A   Clear
7:54 PM 55.9 °F - 46.0 °F 69% 30.16 in 10.0 mi West 4.6 mph - N/A   Clear
8:54 PM 55.0 °F - 46.0 °F 72% 30.15 in 10.0 mi South 4.6 mph - N/A   Clear
9:54 PM 55.9 °F - 45.0 °F 67% 30.16 in 10.0 mi SW 8.1 mph - N/A   Clear
10:54 PM 55.9 °F - 46.0 °F 69% 30.16 in 10.0 mi SW 9.2 mph - N/A   Clear
11:54 PM 54.0 °F - 46.9 °F 77% 30.16 in 10.0 mi SSW 5.8 mph - N/A   Clear